Regional Weather Roundup
Issued by NWS

Home | Current Version | Previous Version | Text Only | Print | Product List | Glossary On
Versions: 1 2 3 4 5 6 7 8 9 10 11 12 13 14 15 16 17 18 19 20 21 22 23 24 25 26 27 28 29 30 31 32 33 34 35 36 37 38 39 40 41 42 43 44 45 46 47 48 49 50
000
ASUS44 KLIX 222110
RWRLA
LOUISIANA WEATHER ROUNDUP
NATIONAL WEATHER SERVICE NEW ORLEANS LA
400 PM CDT FRI AUG 22 2014

NOTE: "FAIR" INDICATES FEW OR NO CLOUDS BELOW 12,000 FEET WITH NO
      SIGNIFICANT WEATHER AND/OR OBSTRUCTIONS TO VISIBILITY.
      SKY/WX - SKY CONDITION AND SIGNIFICANT WEATHER.
      TMP - AIR TEMPERATURE.    DP   - DEWPOINT TEMPERATURE.
      RH  - RELATIVE HUMIDITY.  PRES - PRESSURE.
      HX  - HEAT INDEX.         WCI  - WIND CHILL INDEX.

*  THESE STATIONS ARE NOT NWS OR FAA STATIONS AND ARE NOT UNDER
   NWS QUALITY CONTROL.

LAZ040-048-061>063-065-066-069-222200-
SOUTHEAST LOUISIANA

CITY           SKY/WX    TMP DP  RH WIND       PRES   REMARKS
N.O. AUDUBON     N/A     96  75  51 MISG        N/A  HX 108
N.O. INTL ARPT MOSUNNY   94  68  42 NW5       30.04F HX  98
N.O. LAKEFRONT SUNNY     90  74  59 W5        30.05F HX  99
N.O. DOWNTOWN* FAIR      95  66  38 CALM      30.05F HX  98
SLIDELL        MOSUNNY   96  70  42 NE7       30.03F HX 102
BATON ROUGE    SUNNY     94  71  47 VRB3      30.05F HX 101
BOOTHVILLE     SUNNY     91  75  59 VRB5      30.06F HX 101
BELLE CHASSE   PTSUNNY   93  70  46 E9        30.04F HX  99
BOGALUSA*      FAIR      95  71  44 CALM      30.05F HX 102
GALLIANO*      NOT AVBL
NEW ROADS*     FAIR      91  76  62 N7        30.05F HX 103
GONZALES*      MOCLDY    93  77  58 CALM      30.04F HX 107
HAMMOND*       MOSUNNY   93  70  46 SE5       30.05F HX  99
HOUMA*         MOSUNNY   97  66  36 NE5       30.04F HX 100
PORT FOURCHON* CLEAR     91  73  55 SE10      30.06F HX 100

$$

LAZ041-044-053-054-222200-
SOUTHWEST LOUISIANA

CITY           SKY/WX    TMP DP  RH WIND       PRES   REMARKS
LAKE CHARLES   MOSUNNY   92  73  53 S5        30.04F HX 100
LAFAYETTE      SUNNY     91  74  57 CALM      30.04F HX 100
PATTERSON      PTSUNNY   93  75  55 CALM      30.08F HX 104
SALT POINT       N/A     94  77  57 VRB5      30.05F HX 108
NEW IBERIA     SUNNY     96  72  45 NE7       30.04F HX 104
CHENAULT AIRPK MOSUNNY   93  72  49 SE3       30.05F HX 100

$$

LAZ027-028-222200-
CENTRAL LOUISIANA

CITY           SKY/WX    TMP DP  RH WIND       PRES   REMARKS
FORT POLK      MOSUNNY   91  72  53 SW6       30.05F HX  98
ALEXANDRIA INT MOSUNNY   91  72  53 E3        30.03F HX  98
ALEXANDRIA     MOSUNNY   93  72  50 SW5       30.05F HX 101

$$

LAZ001-002-222200-
NORTHWEST LOUISIANA

CITY           SKY/WX    TMP DP  RH WIND       PRES   REMARKS
SHREVEPORT     SUNNY     95  70  44 SW3       30.02F HX 101
BARKSDALE AFB  SUNNY     97  66  36 SW5       30.02F HX 100
DTN SHREVEPORT SUNNY     96  66  37 SW7       30.02F HX  99

$$

LAZ014-016-222200-
NORTHEAST LOUISIANA

CITY           SKY/WX    TMP DP  RH WIND       PRES   REMARKS
MONROE         SUNNY     93  70  46 SW8       30.04F HX  99
TALLULAH       SUNNY     93  70  46 S6        30.04F HX  99

$$



USA.gov is the U.S. government's official web portal to all federal, state and local government web resources and services.